HAMSAT

Satellite information

Favourite Embed

Satellite Type and Status

PAYLOADIN ORBIT

Key statistics

Satellite HAMSAT at a glance.

Uptime

7309

Days in orbit

Revolutions

≈ 15.0

Per day

Orbit

SSO

Sun Synchronous Orbit

Inclination

98.0

Latest

Satellite identification and parameters

Extended collection of information and parameters for HAMSAT.

Object identification

Identified? True

Debris? False

Object name: HAMSAT

International designator: 2005-017B

Object number (NORAD): 28650

Object ID (CCSDS): 28650

Country: INDIA (IND)

Current information (Y/N): Y

RCS size: MEDIUM

Orbital parameters

Period: 95.689 minutes

Inclination: 98.0023 deg

SMA: 6930.015 km

Apoapsis: 565.877 km

Periapsis: 537.884 km

RAAN: 130.9863 deg

Eccentricy: 0.0020197

Argument of periapsis: 325.5808 deg

Mean anomaly: 34.4108 deg

Mean motion: 15.04878566 rev/day

Mean motion (dot): 0.0000593 rev/day2

B* drag term: 0.00042206 1/REarth

Two-line elements (TLE)

Creation date: May 9, 2025, 2:46 a.m.

Reference frame: TEME

Reference center: EARTH

Epoch: May 8, 2025, 11:15 p.m. UTC

TLE line 0: 0 HAMSAT

TLE line 1: 1 28650U 05017B 25128.96896769 .00005930 00000-0 42206-3 0 9996

TLE line 2: 2 28650 98.0023 130.9863 0020197 325.5808 34.4108 15.04878566 85873

Live tracking on map

Real-time ground track for satellite HAMSAT.

In-orbit conjunctions

There are no conjunctions computed for HAMSAT, at the moment. Check back to stay up to date, as we update our databases every day.

Go to all conjunctions

Associated space launch

Cartosat-1 or IRS-P5 is a stereoscopic Earth observation satellite in a sun-synchronous orbit, and the first one of the Cartosat series of satellites. The eleventh satellite of ISRO in IRS series.

HAMSAT was lifted into orbit during the mission ‘PSLV | Cartosat-1’, on board a PSLV space rocket.

The launch took place on May 5, 2005, 4:45 a.m. from Satish Dhawan Space Centre Second Launch Pad.

For more information about the launch, click the button.

Launch to space PSLV | Cartosat-1
PSLV | Cartosat-1

Agency: N/A

Status: Launch Successful

Launch date: May 5, 2005, 4:45 a.m. UTC

Rocket: PSLV

Launch pad: Satish Dhawan Space Centre Second Launch Pad

Location: Satish Dhawan Space Centre, India

...

Latest news about this satellite

There are no fresh news available about this satellite. Check back as we update our databases every day.


Newsletter sign-up

Weekly statistics, charts and insights to help you stay on top of the space industry.